| time (UTC) | temp F | wind direction | speed MPH | gust MPH | rain 1hr in | rain 24hr in | rain mn in | humidity % | barometer mb |
| 20260510071012 | 52 | 280 | 1.0 | 3.0 | 0.00 | 0.27 | 0.00 | 92 | 1011.6 |
| 20260510070510 | 52 | 225 | 0.0 | 3.0 | 0.00 | 0.27 | 0.00 | 92 | 1011.5 |
| 20260510070010 | 52 | 255 | 0.0 | 2.0 | 0.00 | 0.27 | 0.00 | 92 | 1011.3 |
| 20260510065505 | 52 | 184 | 0.0 | 1.0 | 0.00 | 0.27 | 0.00 | 92 | 1011.1 |
| 20260510065009 | 52 | 184 | 0.0 | 1.0 | 0.00 | 0.27 | 0.00 | 92 | 1011.0 |
| 20260510064517 | 52 | 184 | 0.0 | 1.0 | 0.00 | 0.27 | 0.00 | 92 | 1010.9 |
| 20260510064003 | 52 | 184 | 0.0 | 1.0 | 0.00 | 0.27 | 0.00 | 92 | 1010.8 |
| 20260510063502 | 52 | 184 | 0.0 | 1.0 | 0.00 | 0.27 | 0.00 | 92 | 1010.9 |
| 20260510063059 | 52 | 184 | 0.0 | 1.0 | 0.00 | 0.27 | 0.00 | 92 | 1010.9 |
| 20260510062516 | 52 | 184 | 0.0 | 1.0 | 0.00 | 0.27 | 0.00 | 92 | 1010.9 |
| 20260510062014 | 52 | 184 | 0.0 | 1.0 | 0.00 | 0.27 | 0.00 | 92 | 1010.8 |
| 20260510061519 | 52 | 184 | 0.0 | 1.0 | 0.00 | 0.27 | 0.00 | 92 | 1010.9 |
| 20260510061011 | 52 | 184 | 0.0 | 2.0 | 0.00 | 0.27 | 0.00 | 92 | 1010.9 |
| 20260510060516 | 52 | 184 | 0.0 | 2.0 | 0.00 | 0.27 | 0.00 | 92 | 1010.9 |
| 20260510060009 | 52 | 184 | 0.0 | 1.0 | 0.00 | 0.27 | 0.00 | 92 | 1010.8 |
| 20260510055505 | 52 | 184 | 0.0 | 2.0 | 0.00 | 0.27 | 0.00 | 92 | 1010.9 |
| 20260510055003 | 52 | 184 | 1.0 | 2.0 | 0.00 | 0.27 | 0.00 | 92 | 1011.0 |
| 20260510054501 | 52 | 184 | 0.0 | 1.0 | 0.00 | 0.27 | 0.00 | 92 | 1011.0 |
| 20260510054003 | 52 | 184 | 0.0 | 3.0 | 0.00 | 0.27 | 0.00 | 92 | 1011.1 |
| 20260510053600 | 52 | 196 | 0.0 | 3.0 | 0.00 | 0.27 | 0.00 | 92 | 1011.2 |
| 20260510053059 | 52 | 196 | 1.0 | 3.0 | 0.00 | 0.27 | 0.00 | 92 | 1011.2 |
| 20260510052516 | 52 | 218 | 0.0 | 2.0 | 0.00 | 0.27 | 0.00 | 92 | 1011.2 |
| 20260510052015 | 52 | 184 | 0.0 | 2.0 | 0.00 | 0.27 | 0.00 | 92 | 1011.3 |
| 20260510051514 | 52 | 184 | 0.0 | 1.0 | 0.00 | 0.27 | 0.00 | 92 | 1011.2 |
| 20260510051011 | 52 | 184 | 0.0 | 2.0 | 0.00 | 0.27 | 0.00 | 92 | 1011.3 |
| 20260510050510 | 52 | 184 | 0.0 | 3.0 | 0.00 | 0.27 | 0.00 | 92 | 1011.3 |
| 20260510050008 | 52 | 184 | 0.0 | 3.0 | 0.00 | 0.27 | 0.00 | 92 | 1011.4 |
| 20260510045507 | 52 | 145 | 0.0 | 3.0 | 0.00 | 0.27 | 0.00 | 92 | 1011.3 |
| 20260510045007 | 52 | 145 | 0.0 | 3.0 | 0.00 | 0.27 | 0.00 | 92 | 1011.2 |
| 20260510044503 | 52 | 145 | 0.0 | 3.0 | 0.00 | 0.27 | 0.00 | 92 | 1011.2 |
| 20260510044100 | 52 | 126 | 0.0 | 3.0 | 0.00 | 0.27 | 0.00 | 92 | 1011.3 |
| 20260510043557 | 52 | 126 | 0.0 | 3.0 | 0.00 | 0.27 | 0.00 | 92 | 1011.2 |
| 20260510043103 | 52 | 126 | 0.0 | 1.0 | 0.00 | 0.27 | 0.00 | 92 | 1011.2 |
| 20260510042517 | 52 | 126 | 0.0 | 0.0 | 0.00 | 0.27 | 0.00 | 92 | 1011.3 |
| 20260510042019 | 52 | 126 | 0.0 | 0.0 | 0.00 | 0.27 | 0.00 | 92 | 1011.2 |
| 20260510041517 | 52 | 126 | 0.0 | 0.0 | 0.00 | 0.27 | 0.00 | 91 | 1011.1 |
| 20260510041012 | 52 | 126 | 0.0 | 1.0 | 0.00 | 0.27 | 0.00 | 92 | 1011.1 |
| 20260510040510 | 52 | 126 | 0.0 | 1.0 | 0.00 | 0.27 | 0.00 | 92 | 1011.0 |
| 20260510040008 | 52 | 126 | 0.0 | 1.0 | 0.00 | 0.27 | 0.27 | 92 | 1010.9 |
| 20260510035505 | 52 | 126 | 0.0 | 1.0 | 0.00 | 0.27 | 0.27 | 92 | 1010.7 |
| 20260510035003 | 53 | 126 | 0.0 | 2.0 | 0.00 | 0.27 | 0.27 | 91 | 1010.7 |
| 20260510034502 | 53 | 126 | 0.0 | 2.0 | 0.00 | 0.27 | 0.27 | 92 | 1010.7 |
| 20260510034000 | 53 | 127 | 0.0 | 2.0 | 0.00 | 0.27 | 0.27 | 91 | 1010.6 |
| 20260510033519 | 53 | 127 | 0.0 | 2.0 | 0.00 | 0.27 | 0.27 | 91 | 1010.7 |
| 20260510033019 | 53 | 147 | 0.0 | 1.0 | 0.00 | 0.27 | 0.27 | 91 | 1010.6 |
| 20260510032509 | 53 | 147 | 0.0 | 1.0 | 0.00 | 0.27 | 0.27 | 91 | 1010.8 |
| 20260510032009 | 53 | 147 | 0.0 | 1.0 | 0.00 | 0.27 | 0.27 | 91 | 1010.7 |
| 20260510031510 | 53 | 146 | 0.0 | 2.0 | 0.00 | 0.27 | 0.27 | 91 | 1010.7 |
| 20260510031007 | 53 | 146 | 0.0 | 2.0 | 0.00 | 0.27 | 0.27 | 91 | 1010.7 |
| 20260510030508 | 53 | 146 | 0.0 | 2.0 | 0.00 | 0.27 | 0.27 | 91 | 1010.8 |
| 20260510030006 | 53 | 223 | 0.0 | 3.0 | 0.00 | 0.27 | 0.27 | 91 | 1010.9 |
| 20260510025503 | 53 | 173 | 0.0 | 3.0 | 0.00 | 0.27 | 0.27 | 91 | 1010.7 |
| 20260510025004 | 53 | 181 | 0.0 | 1.0 | 0.00 | 0.27 | 0.27 | 91 | 1010.7 |
| 20260510024606 | 53 | 181 | 0.0 | 0.0 | 0.00 | 0.27 | 0.27 | 91 | 1010.6 |
| 20260510024016 | 53 | 181 | 0.0 | 2.0 | 0.00 | 0.27 | 0.27 | 91 | 1010.7 |
| 20260510023517 | 53 | 181 | 0.0 | 2.0 | 0.00 | 0.27 | 0.27 | 91 | 1010.7 |
| 20260510023013 | 53 | 181 | 0.0 | 2.0 | 0.00 | 0.27 | 0.27 | 91 | 1010.8 |
| 20260510022513 | 53 | 181 | 0.0 | 1.0 | 0.00 | 0.27 | 0.27 | 91 | 1010.8 |
| 20260510022009 | 53 | 181 | 0.0 | 2.0 | 0.00 | 0.27 | 0.27 | 91 | 1010.8 |
| 20260510021516 | 53 | 181 | 0.0 | 2.0 | 0.00 | 0.27 | 0.27 | 91 | 1010.8 |
| 20260510021004 | 53 | 181 | 1.0 | 2.0 | 0.00 | 0.27 | 0.27 | 91 | 1010.8 |
| 20260510020507 | 53 | 156 | 0.0 | 2.0 | 0.00 | 0.27 | 0.27 | 91 | 1010.8 |
| 20260510020005 | 53 | 88 | 0.0 | 4.0 | 0.00 | 0.27 | 0.27 | 91 | 1010.9 |
| 20260510015503 | 53 | 59 | 1.0 | 5.0 | 0.00 | 0.27 | 0.27 | 91 | 1010.8 |
| 20260510015001 | 53 | 170 | 1.0 | 5.0 | 0.00 | 0.27 | 0.27 | 91 | 1010.8 |
| 20260510014602 | 53 | 199 | 3.0 | 5.0 | 0.00 | 0.27 | 0.27 | 91 | 1010.7 |
| 20260510014019 | 53 | 116 | 0.0 | 2.0 | 0.00 | 0.27 | 0.27 | 91 | 1010.7 |
| 20260510013517 | 54 | 116 | 0.0 | 1.0 | 0.00 | 0.27 | 0.27 | 91 | 1010.7 |
| 20260510013013 | 54 | 116 | 0.0 | 2.0 | 0.00 | 0.27 | 0.27 | 91 | 1010.8 |
| 20260510012512 | 54 | 116 | 0.0 | 4.0 | 0.00 | 0.27 | 0.27 | 91 | 1010.7 |
| 20260510012010 | 54 | 113 | 0.0 | 4.0 | 0.00 | 0.27 | 0.27 | 91 | 1010.6 |
| 20260510011509 | 54 | 190 | 0.0 | 3.0 | 0.00 | 0.27 | 0.27 | 91 | 1010.6 |
| 20260510011006 | 54 | 188 | 0.0 | 3.0 | 0.00 | 0.27 | 0.27 | 91 | 1010.6 |
| 20260510010504 | 54 | 79 | 1.0 | 3.0 | 0.00 | 0.27 | 0.27 | 91 | 1010.5 |
| 20260510010002 | 54 | 131 | 0.0 | 2.0 | 0.00 | 0.27 | 0.27 | 90 | 1010.6 |
| 20260510005504 | 54 | 131 | 0.0 | 0.0 | 0.00 | 0.27 | 0.27 | 90 | 1010.5 |
| 20260510005002 | 54 | 131 | 0.0 | 0.0 | 0.00 | 0.27 | 0.27 | 90 | 1010.6 |
| 20260510004600 | 54 | 131 | 0.0 | 0.0 | 0.01 | 0.27 | 0.27 | 90 | 1010.5 |
| 20260510004018 | 54 | 131 | 0.0 | 0.0 | 0.01 | 0.27 | 0.27 | 90 | 1010.5 |
| 20260510003513 | 54 | 131 | 0.0 | 0.0 | 0.01 | 0.27 | 0.27 | 90 | 1010.5 |
| 20260510003012 | 55 | 131 | 0.0 | 1.0 | 0.01 | 0.27 | 0.27 | 91 | 1010.4 |
| 20260510002510 | 55 | 131 | 0.0 | 1.0 | 0.01 | 0.27 | 0.27 | 91 | 1010.4 |
| 20260510002007 | 55 | 131 | 0.0 | 1.0 | 0.01 | 0.27 | 0.27 | 91 | 1010.3 |
| 20260510001505 | 55 | 131 | 0.0 | 1.0 | 0.01 | 0.27 | 0.27 | 91 | 1010.3 |
| 20260510001004 | 55 | 131 | 0.0 | 2.0 | 0.01 | 0.27 | 0.27 | 91 | 1010.3 |
| 20260510000503 | 55 | 223 | 0.0 | 1.0 | 0.03 | 0.27 | 0.27 | 91 | 1010.2 |
| 20260510000100 | 55 | 223 | 0.0 | 1.0 | 0.03 | 0.27 | 0.27 | 91 | 1010.2 |
| 20260509235517 | 55 | 223 | 0.0 | 1.0 | 0.03 | 0.27 | 0.27 | 91 | 1010.2 |
| 20260509235013 | 55 | 224 | 0.0 | 3.0 | 0.03 | 0.27 | 0.27 | 91 | 1010.1 |
| 20260509234526 | 55 | 224 | 1.0 | 3.0 | 0.02 | 0.26 | 0.26 | 91 | 1010.3 |
| 20260509234016 | 55 | 177 | 0.0 | 2.0 | 0.03 | 0.26 | 0.26 | 91 | 1010.1 |
| 20260509233511 | 55 | 177 | 0.0 | 2.0 | 0.05 | 0.26 | 0.26 | 91 | 1010.0 |
| 20260509233010 | 55 | 177 | 0.0 | 2.0 | 0.08 | 0.26 | 0.26 | 91 | 1010.1 |
| 20260509232508 | 55 | 262 | 0.0 | 3.0 | 0.08 | 0.26 | 0.26 | 91 | 1010.4 |
| 20260509232010 | 55 | 199 | 0.0 | 3.0 | 0.08 | 0.26 | 0.26 | 91 | 1010.3 |
| 20260509231509 | 55 | 306 | 1.0 | 4.0 | 0.08 | 0.26 | 0.26 | 90 | 1010.4 |
| 20260509231001 | 55 | 123 | 2.0 | 4.0 | 0.07 | 0.25 | 0.25 | 90 | 1010.3 |
| 20260509230559 | 55 | 168 | 1.0 | 3.0 | 0.06 | 0.24 | 0.24 | 90 | 1010.7 |
| 20260509230018 | 55 | 224 | 0.0 | 3.0 | 0.06 | 0.24 | 0.24 | 90 | 1010.7 |
| 20260509225516 | 55 | 224 | 1.0 | 3.0 | 0.06 | 0.24 | 0.24 | 90 | 1010.4 |
| 20260509225013 | 55 | 154 | 0.0 | 2.0 | 0.06 | 0.24 | 0.24 | 90 | 1010.3 |
| 20260509224526 | 55 | 43 | 1.0 | 4.0 | 0.06 | 0.24 | 0.24 | 90 | 1010.6 |
| 20260509224010 | 55 | 18 | 0.0 | 9.0 | 0.05 | 0.23 | 0.23 | 90 | 1010.6 |
| 20260509223513 | 55 | 197 | 4.0 | 9.0 | 0.02 | 0.20 | 0.20 | 90 | 1011.4 |
| 20260509223011 | 55 | 249 | 3.0 | 7.0 | 0.00 | 0.18 | 0.18 | 90 | 1011.4 |
| 20260509222509 | 55 | 273 | 1.0 | 4.0 | 0.00 | 0.18 | 0.18 | 90 | 1010.8 |
| 20260509222007 | 55 | 184 | 1.0 | 4.0 | 0.00 | 0.18 | 0.18 | 90 | 1010.6 |
| 20260509221504 | 55 | 178 | 0.0 | 4.0 | 0.00 | 0.18 | 0.18 | 90 | 1010.6 |
| 20260509221003 | 55 | 167 | 1.0 | 6.0 | 0.00 | 0.18 | 0.18 | 90 | 1010.9 |
| 20260509220503 | 55 | 186 | 3.0 | 6.0 | 0.00 | 0.18 | 0.18 | 89 | 1011.0 |
| 20260509220058 | 55 | 200 | 1.0 | 6.0 | 0.00 | 0.18 | 0.18 | 89 | 1010.8 |
| 20260509215517 | 55 | 220 | 2.0 | 6.0 | 0.00 | 0.18 | 0.18 | 89 | 1010.7 |
| 20260509215015 | 55 | 202 | 0.0 | 4.0 | 0.00 | 0.18 | 0.18 | 89 | 1010.9 |
| 20260509214512 | 55 | 211 | 2.0 | 5.0 | 0.00 | 0.18 | 0.18 | 89 | 1011.0 |
| 20260509214010 | 55 | 264 | 1.0 | 6.0 | 0.00 | 0.18 | 0.18 | 89 | 1010.9 |
| 20260509213508 | 55 | 184 | 1.0 | 6.0 | 0.00 | 0.18 | 0.18 | 89 | 1011.0 |
| 20260509213007 | 55 | 231 | 2.0 | 4.0 | 0.00 | 0.18 | 0.18 | 89 | 1011.1 |
| 20260509212504 | 55 | 256 | 0.0 | 4.0 | 0.00 | 0.18 | 0.18 | 89 | 1011.1 |
| 20260509212006 | 55 | 256 | 1.0 | 4.0 | 0.00 | 0.18 | 0.18 | 89 | 1011.1 |
| 20260509211508 | 55 | 219 | 0.0 | 3.0 | 0.00 | 0.18 | 0.18 | 89 | 1011.1 |
| 20260509211003 | 55 | 232 | 1.0 | 8.0 | 0.00 | 0.18 | 0.18 | 89 | 1011.1 |
| 20260509210601 | 55 | 201 | 2.0 | 8.0 | 0.00 | 0.18 | 0.18 | 89 | 1011.1 |
| 20260509210104 | 55 | 214 | 3.0 | 8.0 | 0.00 | 0.18 | 0.18 | 89 | 1011.1 |
| 20260509205520 | 55 | 173 | 3.0 | 8.0 | 0.00 | 0.18 | 0.18 | 89 | 1011.2 |
| 20260509205014 | 55 | 204 | 3.0 | 8.0 | 0.00 | 0.18 | 0.18 | 89 | 1011.1 |
| 20260509204512 | 55 | 192 | 2.0 | 8.0 | 0.00 | 0.18 | 0.18 | 89 | 1011.2 |
| 20260509204011 | 55 | 213 | 3.0 | 11.0 | 0.00 | 0.18 | 0.18 | 89 | 1011.0 |
| 20260509203510 | 55 | 267 | 3.0 | 11.0 | 0.00 | 0.18 | 0.18 | 89 | 1011.0 |
| 20260509203011 | 55 | 192 | 5.0 | 11.0 | 0.00 | 0.18 | 0.18 | 88 | 1011.1 |
| 20260509202505 | 56 | 101 | 5.0 | 14.0 | 0.00 | 0.18 | 0.18 | 89 | 1011.0 |
| 20260509202006 | 56 | 190 | 4.0 | 17.0 | 0.01 | 0.18 | 0.18 | 89 | 1010.9 |
| 20260509201501 | 56 | 165 | 7.0 | 17.0 | 0.01 | 0.18 | 0.18 | 89 | 1010.9 |
| 20260509201003 | 56 | 182 | 6.0 | 13.0 | 0.01 | 0.18 | 0.18 | 89 | 1011.1 |
| 20260509200501 | 56 | 92 | 5.0 | 9.0 | 0.01 | 0.18 | 0.18 | 89 | 1011.1 |
| 20260509200059 | 56 | 211 | 2.0 | 9.0 | 0.02 | 0.18 | 0.18 | 89 | 1011.1 |
| 20260509195518 | 56 | 168 | 3.0 | 10.0 | 0.02 | 0.18 | 0.18 | 89 | 1011.2 |
| 20260509195013 | 56 | 205 | 3.0 | 10.0 | 0.03 | 0.18 | 0.18 | 89 | 1011.2 |
| 20260509194511 | 56 | 186 | 4.0 | 10.0 | 0.03 | 0.18 | 0.18 | 89 | 1011.3 |
| 20260509194010 | 56 | 178 | 4.0 | 13.0 | 0.04 | 0.18 | 0.18 | 89 | 1011.3 |
| 20260509193508 | 57 | 161 | 7.0 | 13.0 | 0.04 | 0.18 | 0.18 | 88 | 1011.3 |
| 20260509193009 | 57 | 169 | 3.0 | 7.0 | 0.04 | 0.18 | 0.18 | 88 | 1011.3 |
| 20260509192503 | 57 | 163 | 1.0 | 8.0 | 0.04 | 0.18 | 0.18 | 88 | 1011.1 |
| 20260509192002 | 57 | 79 | 2.0 | 9.0 | 0.04 | 0.17 | 0.17 | 88 | 1011.3 |
| 20260509191600 | 57 | 276 | 3.0 | 9.0 | 0.05 | 0.17 | 0.17 | 88 | 1011.4 |
| 20260509191017 | 57 | 175 | 1.0 | 8.0 | 0.09 | 0.17 | 0.17 | 88 | 1011.5 |
| 20260509190556 | 57 | 164 | 3.0 | 8.0 | 0.10 | 0.17 | 0.17 | 88 | 1011.5 |
| 20260509190058 | 57 | 188 | 3.0 | 10.0 | 0.09 | 0.16 | 0.16 | 87 | 1011.4 |
| 20260509185517 | 57 | 200 | 3.0 | 10.0 | 0.10 | 0.16 | 0.16 | 87 | 1011.5 |
| 20260509185012 | 57 | 186 | 3.0 | 15.0 | 0.09 | 0.15 | 0.15 | 87 | 1011.4 |
| 20260509184519 | 57 | 173 | 3.0 | 15.0 | 0.09 | 0.14 | 0.14 | 87 | 1011.5 |
| 20260509184008 | 57 | 204 | 1.0 | 8.0 | 0.09 | 0.14 | 0.14 | 87 | 1011.4 |
| 20260509183506 | 57 | 118 | 2.0 | 7.0 | 0.11 | 0.14 | 0.14 | 86 | 1011.4 |
| 20260509183005 | 57 | 186 | 1.0 | 7.0 | 0.11 | 0.14 | 0.14 | 86 | 1011.3 |
| 20260509182502 | 57 | 196 | 3.0 | 8.0 | 0.11 | 0.14 | 0.14 | 85 | 1011.2 |
| 20260509182001 | 57 | 164 | 3.0 | 11.0 | 0.11 | 0.13 | 0.13 | 85 | 1011.1 |
| 20260509181611 | 58 | 58 | 3.0 | 11.0 | 0.11 | 0.12 | 0.12 | 85 | 1011.4 |
| 20260509181019 | 58 | 191 | 1.0 | 6.0 | 0.08 | 0.08 | 0.08 | 84 | 1011.4 |
| 20260509180515 | 58 | 165 | 2.0 | 8.0 | 0.07 | 0.07 | 0.07 | 83 | 1011.3 |
| 20260509180013 | 58 | 137 | 4.0 | 10.0 | 0.07 | 0.07 | 0.07 | 83 | 1011.2 |
| 20260509175514 | 58 | 198 | 3.0 | 10.0 | 0.06 | 0.06 | 0.06 | 82 | 1011.3 |
| 20260509175014 | 59 | 187 | 1.0 | 10.0 | 0.06 | 0.06 | 0.06 | 81 | 1011.1 |
| 20260509174512 | 59 | 261 | 4.0 | 10.0 | 0.05 | 0.05 | 0.05 | 80 | 1011.3 |
| 20260509174010 | 60 | 177 | 3.0 | 10.0 | 0.05 | 0.05 | 0.05 | 79 | 1011.2 |
| 20260509173512 | 61 | 221 | 2.0 | 7.0 | 0.03 | 0.03 | 0.03 | 78 | 1011.3 |
| 20260509173006 | 61 | 196 | 1.0 | 5.0 | 0.03 | 0.03 | 0.03 | 77 | 1011.0 |
| 20260509172508 | 61 | 206 | 2.0 | 5.0 | 0.03 | 0.03 | 0.03 | 76 | 1010.7 |
| 20260509172003 | 62 | 173 | 1.0 | 10.0 | 0.02 | 0.02 | 0.02 | 75 | 1011.1 |
| 20260509171501 | 62 | 174 | 3.0 | 10.0 | 0.00 | 0.00 | 0.00 | 74 | 1011.1 |
| 20260509171058 | 62 | 175 | 2.0 | 7.0 | 0.00 | 0.00 | 0.00 | 73 | 1010.9 |
| 20260509170516 | 62 | 92 | 2.0 | 7.0 | 0.00 | 0.00 | 0.00 | 73 | 1011.0 |
| 20260509170021 | 62 | 152 | 3.0 | 5.0 | 0.00 | 0.00 | 0.00 | 73 | 1011.0 |
| 20260509165516 | 62 | 204 | 1.0 | 8.0 | 0.00 | 0.00 | 0.00 | 72 | 1010.9 |
| 20260509165012 | 62 | 169 | 4.0 | 8.0 | 0.00 | 0.00 | 0.00 | 72 | 1010.9 |
| 20260509164508 | 62 | 72 | 1.0 | 6.0 | 0.00 | 0.00 | 0.00 | 74 | 1010.9 |
| 20260509164007 | 62 | 206 | 1.0 | 7.0 | 0.00 | 0.00 | 0.00 | 74 | 1011.3 |
| 20260509163512 | 62 | 170 | 2.0 | 7.0 | 0.00 | 0.00 | 0.00 | 73 | 1011.3 |
| 20260509163006 | 62 | 150 | 2.0 | 6.0 | 0.00 | 0.00 | 0.00 | 73 | 1011.5 |
| 20260509162508 | 62 | 88 | 1.0 | 7.0 | 0.00 | 0.00 | 0.00 | 72 | 1011.6 |
| 20260509162002 | 62 | 96 | 3.0 | 7.0 | 0.00 | 0.00 | 0.00 | 72 | 1011.9 |
| 20260509161604 | 62 | 179 | 2.0 | 6.0 | 0.00 | 0.00 | 0.00 | 72 | 1011.9 |
| 20260509161017 | 62 | 127 | 2.0 | 6.0 | 0.00 | 0.00 | 0.00 | 73 | 1012.0 |
| 20260509160515 | 62 | 162 | 2.0 | 7.0 | 0.00 | 0.00 | 0.00 | 72 | 1012.0 |
| 20260509160014 | 62 | 178 | 0.0 | 11.0 | 0.00 | 0.00 | 0.00 | 72 | 1011.9 |
| 20260509155511 | 62 | 199 | 4.0 | 11.0 | 0.00 | 0.00 | 0.00 | 71 | 1012.0 |
| 20260509155009 | 62 | 125 | 3.0 | 11.0 | 0.00 | 0.00 | 0.00 | 72 | 1012.0 |
| 20260509154510 | 62 | 202 | 5.0 | 11.0 | 0.00 | 0.00 | 0.00 | 71 | 1012.0 |
| 20260509154006 | 62 | 136 | 2.0 | 9.0 | 0.00 | 0.00 | 0.00 | 71 | 1012.1 |
| 20260509153504 | 62 | 355 | 1.0 | 7.0 | 0.00 | 0.00 | 0.00 | 71 | 1012.2 |
| 20260509153003 | 62 | 99 | 2.0 | 10.0 | 0.00 | 0.00 | 0.00 | 70 | 1012.1 |
| 20260509152505 | 62 | 178 | 5.0 | 10.0 | 0.00 | 0.00 | 0.00 | 69 | 1012.2 |
| 20260509152003 | 62 | 70 | 1.0 | 9.0 | 0.00 | 0.00 | 0.00 | 70 | 1012.2 |
| 20260509151614 | 62 | 243 | 3.0 | 9.0 | 0.00 | 0.00 | 0.00 | 69 | 1012.2 |
| 20260509151058 | 62 | 197 | 2.0 | 8.0 | 0.00 | 0.00 | 0.00 | 69 | 1012.2 |
| 20260509150520 | 62 | 180 | 2.0 | 10.0 | 0.00 | 0.00 | 0.00 | 69 | 1012.2 |
| 20260509150014 | 62 | 219 | 4.0 | 10.0 | 0.00 | 0.00 | 0.00 | 68 | 1012.3 |
| 20260509145513 | 62 | 193 | 2.0 | 8.0 | 0.00 | 0.00 | 0.00 | 68 | 1012.3 |
| 20260509145011 | 62 | 188 | 4.0 | 9.0 | 0.00 | 0.00 | 0.00 | 68 | 1012.4 |
| 20260509144514 | 61 | 217 | 3.0 | 14.0 | 0.00 | 0.00 | 0.00 | 69 | 1012.3 |
| 20260509144006 | 61 | 145 | 4.0 | 14.0 | 0.00 | 0.00 | 0.00 | 69 | 1012.3 |
| 20260509143506 | 61 | 223 | 4.0 | 8.0 | 0.00 | 0.00 | 0.00 | 71 | 1012.4 |
| 20260509143010 | 61 | 63 | 2.0 | 9.0 | 0.00 | 0.00 | 0.00 | 71 | 1012.3 |
| 20260509142504 | 60 | 216 | 2.0 | 9.0 | 0.00 | 0.00 | 0.00 | 71 | 1012.3 |
| 20260509142001 | 60 | 180 | 5.0 | 11.0 | 0.00 | 0.00 | 0.00 | 72 | 1012.1 |
| 20260509141512 | 60 | 201 | 1.0 | 11.0 | 0.00 | 0.00 | 0.00 | 73 | 1012.2 |
| 20260509141003 | 59 | 197 | 2.0 | 10.0 | 0.00 | 0.00 | 0.00 | 73 | 1012.2 |
| 20260509140501 | 59 | 153 | 4.0 | 10.0 | 0.00 | 0.00 | 0.00 | 73 | 1012.3 |
| 20260509140059 | 59 | 177 | 5.0 | 10.0 | 0.00 | 0.00 | 0.00 | 74 | 1012.4 |
| 20260509135520 | 58 | 138 | 2.0 | 8.0 | 0.00 | 0.00 | 0.00 | 74 | 1012.4 |
| 20260509135015 | 58 | 108 | 2.0 | 8.0 | 0.00 | 0.00 | 0.00 | 75 | 1012.4 |
| 20260509134525 | 58 | 263 | 2.0 | 8.0 | 0.00 | 0.00 | 0.00 | 75 | 1012.4 |
| 20260509134010 | 58 | 192 | 1.0 | 5.0 | 0.00 | 0.00 | 0.00 | 76 | 1012.3 |
| 20260509133509 | 57 | 172 | 1.0 | 5.0 | 0.00 | 0.00 | 0.00 | 77 | 1012.6 |
| 20260509133007 | 57 | 190 | 1.0 | 8.0 | 0.00 | 0.00 | 0.00 | 77 | 1012.5 |
| 20260509132510 | 57 | 63 | 2.0 | 8.0 | 0.00 | 0.00 | 0.00 | 77 | 1012.7 |
| 20260509132003 | 57 | 136 | 1.0 | 7.0 | 0.00 | 0.00 | 0.00 | 78 | 1012.7 |
| 20260509131601 | 56 | 190 | 3.0 | 7.0 | 0.00 | 0.00 | 0.00 | 78 | 1012.8 |
| 20260509131058 | 56 | 202 | 2.0 | 6.0 | 0.00 | 0.00 | 0.00 | 79 | 1012.6 |
| 20260509130514 | 56 | 214 | 1.0 | 6.0 | 0.00 | 0.00 | 0.00 | 79 | 1012.6 |
| 20260509130020 | 56 | 192 | 3.0 | 6.0 | 0.00 | 0.00 | 0.00 | 80 | 1012.6 |
| 20260509125517 | 55 | 140 | 3.0 | 7.0 | 0.00 | 0.00 | 0.00 | 81 | 1012.6 |
| 20260509125011 | 55 | 39 | 1.0 | 8.0 | 0.00 | 0.00 | 0.00 | 82 | 1012.9 |
| 20260509124514 | 55 | 225 | 2.0 | 8.0 | 0.00 | 0.00 | 0.00 | 82 | 1012.8 |
| 20260509124007 | 55 | 60 | 2.0 | 6.0 | 0.00 | 0.00 | 0.00 | 83 | 1012.8 |
| 20260509123506 | 55 | 178 | 2.0 | 7.0 | 0.00 | 0.00 | 0.00 | 83 | 1012.8 |
| 20260509123011 | 54 | 182 | 3.0 | 7.0 | 0.00 | 0.00 | 0.00 | 83 | 1012.8 |
| 20260509122502 | 54 | 144 | 1.0 | 4.0 | 0.00 | 0.00 | 0.00 | 83 | 1012.8 |
| 20260509122100 | 54 | 159 | 1.0 | 4.0 | 0.00 | 0.00 | 0.00 | 83 | 1012.8 |
| 20260509121559 | 53 | 169 | 1.0 | 4.0 | 0.00 | 0.00 | 0.00 | 84 | 1012.8 |
| 20260509121016 | 53 | 184 | 1.0 | 4.0 | 0.00 | 0.00 | 0.00 | 84 | 1012.9 |
| 20260509120519 | 53 | 149 | 1.0 | 5.0 | 0.00 | 0.00 | 0.00 | 84 | 1013.0 |
| 20260509120021 | 53 | 150 | 1.0 | 5.0 | 0.00 | 0.00 | 0.00 | 84 | 1013.0 |
| 20260509115511 | 53 | 164 | 0.0 | 3.0 | 0.00 | 0.00 | 0.00 | 84 | 1012.9 |
| 20260509115013 | 53 | 176 | 1.0 | 4.0 | 0.00 | 0.00 | 0.00 | 84 | 1012.9 |
| 20260509114512 | 52 | 180 | 1.0 | 5.0 | 0.00 | 0.00 | 0.00 | 85 | 1012.9 |
| 20260509114013 | 52 | 173 | 1.0 | 6.0 | 0.00 | 0.00 | 0.00 | 85 | 1012.9 |
| 20260509113508 | 52 | 191 | 0.0 | 2.0 | 0.00 | 0.00 | 0.00 | 85 | 1013.0 |
| 20260509113005 | 52 | 191 | 0.0 | 3.0 | 0.00 | 0.00 | 0.00 | 85 | 1013.0 |
| 20260509112503 | 52 | 191 | 1.0 | 4.0 | 0.00 | 0.00 | 0.00 | 85 | 1013.0 |
| 20260509112001 | 52 | 168 | 0.0 | 3.0 | 0.00 | 0.00 | 0.00 | 86 | 1012.9 |
| 20260509111613 | 52 | 168 | 0.0 | 3.0 | 0.00 | 0.00 | 0.00 | 86 | 1012.7 |
| 20260509111017 | 52 | 168 | 0.0 | 2.0 | 0.00 | 0.00 | 0.00 | 86 | 1012.8 |
| 20260509110516 | 52 | 177 | 0.0 | 2.0 | 0.00 | 0.00 | 0.00 | 86 | 1012.8 |
| 20260509110013 | 51 | 177 | 0.0 | 2.0 | 0.00 | 0.00 | 0.00 | 86 | 1012.9 |
| 20260509105513 | 51 | 126 | 0.0 | 1.0 | 0.00 | 0.00 | 0.00 | 86 | 1012.8 |
| 20260509105009 | 51 | 126 | 0.0 | 1.0 | 0.00 | 0.00 | 0.00 | 86 | 1012.8 |
| 20260509104507 | 51 | 126 | 0.0 | 1.0 | 0.00 | 0.00 | 0.00 | 86 | 1012.8 |
| 20260509104010 | 51 | 126 | 0.0 | 1.0 | 0.00 | 0.00 | 0.00 | 86 | 1012.7 |
| 20260509103508 | 51 | 126 | 0.0 | 4.0 | 0.00 | 0.00 | 0.00 | 86 | 1012.7 |
| 20260509103005 | 51 | 126 | 0.0 | 4.0 | 0.00 | 0.00 | 0.00 | 86 | 1012.7 |
| 20260509102505 | 51 | 178 | 0.0 | 1.0 | 0.00 | 0.00 | 0.00 | 86 | 1012.6 |
| 20260509102002 | 51 | 178 | 0.0 | 0.0 | 0.00 | 0.00 | 0.00 | 86 | 1012.6 |
| 20260509101600 | 51 | 178 | 0.0 | 0.0 | 0.00 | 0.00 | 0.00 | 86 | 1012.5 |
| 20260509101058 | 51 | 178 | 0.0 | 1.0 | 0.00 | 0.00 | 0.00 | 86 | 1012.6 |
| 20260509100516 | 51 | 178 | 0.0 | 2.0 | 0.00 | 0.00 | 0.00 | 86 | 1012.6 |
| 20260509100014 | 51 | 178 | 0.0 | 2.0 | 0.00 | 0.00 | 0.00 | 86 | 1012.5 |
| 20260509095514 | 51 | 178 | 0.0 | 2.0 | 0.00 | 0.00 | 0.00 | 86 | 1012.3 |
| 20260509095006 | 51 | 139 | 1.0 | 2.0 | 0.00 | 0.00 | 0.00 | 86 | 1012.1 |
| 20260509094504 | 51 | 221 | 0.0 | 2.0 | 0.00 | 0.00 | 0.00 | 86 | 1012.2 |
| 20260509094001 | 51 | 185 | 0.0 | 2.0 | 0.00 | 0.00 | 0.00 | 86 | 1012.2 |
| 20260509093557 | 51 | 197 | 1.0 | 2.0 | 0.00 | 0.00 | 0.00 | 86 | 1012.4 |
| 20260509093013 | 51 | 151 | 0.0 | 2.0 | 0.00 | 0.00 | 0.00 | 86 | 1012.3 |
| 20260509092515 | 51 | 196 | 0.0 | 2.0 | 0.00 | 0.00 | 0.00 | 86 | 1012.3 |
| 20260509092013 | 51 | 196 | 0.0 | 3.0 | 0.00 | 0.00 | 0.00 | 86 | 1012.4 |
| 20260509091511 | 51 | 191 | 1.0 | 3.0 | 0.00 | 0.00 | 0.00 | 86 | 1012.4 |
| 20260509091009 | 51 | 191 | 0.0 | 2.0 | 0.00 | 0.00 | 0.00 | 86 | 1012.4 |
| 20260509090507 | 51 | 189 | 0.0 | 2.0 | 0.00 | 0.00 | 0.00 | 86 | 1012.3 |
| 20260509090006 | 51 | 189 | 0.0 | 1.0 | 0.00 | 0.00 | 0.00 | 86 | 1012.4 |
| 20260509085503 | 51 | 189 | 0.0 | 1.0 | 0.00 | 0.00 | 0.00 | 86 | 1012.3 |
| 20260509085001 | 51 | 189 | 0.0 | 1.0 | 0.00 | 0.00 | 0.00 | 86 | 1012.3 |
| 20260509084609 | 51 | 189 | 0.0 | 1.0 | 0.00 | 0.00 | 0.00 | 86 | 1012.1 |
| 20260509084022 | 51 | 189 | 0.0 | 0.0 | 0.00 | 0.00 | 0.00 | 86 | 1012.3 |
| 20260509083516 | 51 | 189 | 0.0 | 2.0 | 0.00 | 0.00 | 0.00 | 86 | 1012.4 |
| 20260509083015 | 51 | 189 | 0.0 | 2.0 | 0.00 | 0.00 | 0.00 | 86 | 1012.5 |
| 20260509082511 | 51 | 193 | 0.0 | 3.0 | 0.00 | 0.00 | 0.00 | 86 | 1012.6 |
| 20260509082009 | 51 | 193 | 0.0 | 3.0 | 0.00 | 0.00 | 0.00 | 86 | 1012.7 |
| 20260509081522 | 51 | 194 | 0.0 | 3.0 | 0.00 | 0.00 | 0.00 | 86 | 1012.7 |
| 20260509081009 | 51 | 191 | 0.0 | 6.0 | 0.00 | 0.00 | 0.00 | 86 | 1012.7 |
| 20260509080505 | 50 | 188 | 1.0 | 6.0 | 0.00 | 0.00 | 0.00 | 86 | 1012.7 |
| 20260509080005 | 50 | 159 | 0.0 | 4.0 | 0.00 | 0.00 | 0.00 | 86 | 1012.8 |
| 20260509075502 | 50 | 173 | 1.0 | 6.0 | 0.00 | 0.00 | 0.00 | 86 | 1012.9 |
| 20260509075100 | 50 | 146 | 0.0 | 6.0 | 0.00 | 0.00 | 0.00 | 86 | 1012.8 |
| 20260509074603 | 50 | 95 | 0.0 | 1.0 | 0.00 | 0.00 | 0.00 | 86 | 1012.6 |
| 20260509074016 | 50 | 95 | 0.0 | 0.0 | 0.00 | 0.00 | 0.00 | 86 | 1012.5 |
| 20260509073514 | 50 | 95 | 0.0 | 1.0 | 0.00 | 0.00 | 0.00 | 86 | 1012.4 |
| 20260509073030 | 50 | 95 | 0.0 | 1.0 | 0.00 | 0.00 | 0.00 | 86 | 1012.3 |
| 20260509072510 | 50 | 95 | 0.0 | 0.0 | 0.00 | 0.00 | 0.00 | 86 | 1012.3 |
| 20260509072008 | 50 | 95 | 0.0 | 0.0 | 0.00 | 0.00 | 0.00 | 86 | 1012.3 |
| 20260509071506 | 50 | 95 | 0.0 | 0.0 | 0.00 | 0.00 | 0.00 | 85 | 1012.3 |